Location: Mt. Graham
(32.7020°N, 109.8880°W)
Time: 13:49:31
(UTC-07:00)

OTV 5 (USA 277) - Visible Passes

Search period start: 22 February 2018 00:00
Search period end: 04 March 2018 00:00
Orbit: 404 x 417 km, 43.0° (Epoch: 07 September)

Date Brightness Start Highest point End Pass type
(mag) Time Alt. Az. Time Alt. Az. Time Alt. Az.
22 Feb ? 04:51:51 21° ENE 04:51:51 21° ENE 04:53:07 10° ENE visible
22 Feb ? 06:24:53 10° WNW 06:27:25 20° NNW 06:29:58 10° NE visible
23 Feb ? 05:36:06 26° NNW 05:36:13 26° NNW 05:39:04 10° NE visible
24 Feb ? 04:47:29 14° NE 04:47:29 14° NE 04:48:08 10° NE visible
24 Feb ? 06:21:02 10° NW 06:22:59 15° N 06:24:55 10° NNE visible
25 Feb ? 05:31:35 17° NNW 05:31:43 17° NNW 05:33:56 10° NNE visible
26 Feb ? 04:42:52 11° NNE 04:42:52 11° NNE 04:43:00 10° NE visible
26 Feb ? 06:16:54 10° NNW 06:18:36 13° N 06:20:20 10° NNE visible
27 Feb ? 05:26:53 13° NNW 05:27:19 14° N 05:29:04 10° NNE visible
28 Feb ? 06:12:06 10° NNW 06:14:13 16° N 06:16:21 10° NE visible
01 Mar ? 05:22:09 13° N 05:22:57 14° N 05:24:49 10° NE visible
02 Mar ? 06:06:59 10° NW 06:09:44 24° NNE 06:12:28 10° ENE visible
03 Mar ? 05:17:31 17° N 05:18:31 19° NNE 05:20:58 10° ENE visible
